Time,TemperatureF,DewpointF,PressureIn,WindDirection,WindDirectionDegrees,WindSpeedMPH,WindSpeedGustMPH,Humidity,HourlyPrecipIn,Conditions,Clouds,dailyrainin,SoftwareType,DateUTC
2013-01-23 00:07:00,19.7,10.5,30.36,SE,126,1.0,7.0,67,0.00,CLR,SKC,0.00,WeatherDisplay:10.37,2013-01-23 06:07:00,
2013-01-23 00:12:00,19.6,10.4,30.36,SE,129,1.0,3.0,67,0.00,CLR,SKC,0.00,WeatherDisplay:10.37,2013-01-23 06:12:00,
2013-01-23 00:17:00,19.5,10.3,30.36,SE,124,3.0,6.0,67,0.00,CLR,SKC,0.00,WeatherDisplay:10.37,2013-01-23 06:17:00,
2013-01-23 00:22:00,19.4,10.6,30.36,SE,137,2.0,5.0,68,0.00,CLR,SKC,0.00,WeatherDisplay:10.37,2013-01-23 06:22:00,
2013-01-23 00:27:00,19.3,10.5,30.36,SE,131,0.0,5.0,68,0.00,CLR,SKC,0.00,WeatherDisplay:10.37,2013-01-23 06:27:00,
2013-01-23 00:32:00,19.2,10.4,30.36,SE,126,0.0,3.0,68,0.00,CLR,SKC,0.00,WeatherDisplay:10.37,2013-01-23 06:32:00,
2013-01-23 00:37:00,19.1,10.3,30.36,SE,126,1.0,3.0,68,0.00,CLR,SKC,0.00,WeatherDisplay:10.37,2013-01-23 06:37:00,
2013-01-23 00:42:00,19.0,10.5,30.37,ESE,121,0.0,2.0,69,0.00,CLR,SKC,0.00,WeatherDisplay:10.37,2013-01-23 06:42:00,
2013-01-23 00:47:00,18.9,10.4,30.36,ESE,105,0.0,3.0,69,0.00,CLR,SKC,0.00,WeatherDisplay:10.37,2013-01-23 06:47:00,
2013-01-23 00:52:00,18.8,10.6,30.37,ESE,112,0.0,0.0,70,0.00,CLR,SKC,0.00,WeatherDisplay:10.37,2013-01-23 06:52:00,
2013-01-23 01:02:00,18.5,10.4,30.36,SE,124,1.0,3.0,70,0.00,CLR,SKC,0.00,WeatherDisplay:10.37,2013-01-23 07:02:00,
2013-01-23 01:07:00,18.4,10.3,30.35,SE,131,1.0,2.0,70,0.00,CLR,SKC,0.00,WeatherDisplay:10.37,2013-01-23 07:07:00,
2013-01-23 01:12:00,18.3,10.5,30.35,ESE,122,1.0,3.0,71,0.00,CLR,SKC,0.00,WeatherDisplay:10.37,2013-01-23 07:12:00,
2013-01-23 01:22:00,18.2,10.4,30.35,SE,137,0.0,3.0,71,0.00,CLR,SKC,0.00,WeatherDisplay:10.37,2013-01-23 07:22:00,
2013-01-23 01:27:00,18.0,10.5,30.36,SE,133,0.0,2.0,72,0.00,CLR,SKC,0.00,WeatherDisplay:10.37,2013-01-23 07:27:00,
2013-01-23 01:32:00,17.9,10.7,30.35,ESE,122,1.0,3.0,73,0.00,CLR,SKC,0.00,WeatherDisplay:10.37,2013-01-23 07:32:00,
2013-01-23 01:37:00,17.8,10.3,30.35,SE,130,2.0,3.0,72,0.00,CLR,SKC,0.00,WeatherDisplay:10.37,2013-01-23 07:37:00,
2013-01-23 01:47:00,17.8,10.3,30.35,SE,135,0.0,2.0,72,0.00,CLR,SKC,0.00,WeatherDisplay:10.37,2013-01-23 07:47:00,
2013-01-23 01:52:00,17.7,10.2,30.35,SE,144,0.0,2.0,72,0.00,CLR,SKC,0.00,WeatherDisplay:10.37,2013-01-23 07:52:00,
2013-01-23 01:57:00,17.7,10.2,30.35,SE,130,0.0,2.0,72,0.00,CLR,SKC,0.00,WeatherDisplay:10.37,2013-01-23 07:57:00,
2013-01-23 02:07:00,17.6,10.4,30.35,SE,124,0.0,3.0,73,0.00,CLR,SKC,0.00,WeatherDisplay:10.37,2013-01-23 08:07:00,
2013-01-23 02:12:00,17.7,10.5,30.35,SE,127,0.0,3.0,73,0.00,CLR,SKC,0.00,WeatherDisplay:10.37,2013-01-23 08:12:00,
2013-01-23 02:22:00,17.7,10.2,30.35,SE,132,0.0,2.0,72,0.00,CLR,SKC,0.00,WeatherDisplay:10.37,2013-01-23 08:22:00,
2013-01-23 02:27:00,17.6,10.4,30.35,SE,128,0.0,3.0,73,0.00,CLR,SKC,0.00,WeatherDisplay:10.37,2013-01-23 08:27:00,
2013-01-23 02:32:00,17.6,10.4,30.34,SE,127,1.0,3.0,73,0.00,CLR,SKC,0.00,WeatherDisplay:10.37,2013-01-23 08:32:00,
2013-01-23 02:37:00,17.5,10.0,30.34,SE,129,0.0,2.0,72,0.00,CLR,SKC,0.00,WeatherDisplay:10.37,2013-01-23 08:37:00,
2013-01-23 02:42:00,17.5,10.3,30.34,SE,135,0.0,3.0,73,0.00,CLR,SKC,0.00,WeatherDisplay:10.37,2013-01-23 08:42:00,
2013-01-23 02:52:00,17.3,10.4,30.34,SE,142,0.0,3.0,74,0.00,CLR,SKC,0.00,WeatherDisplay:10.37,2013-01-23 08:52:00,
2013-01-23 02:57:00,17.1,10.3,30.34,SE,146,0.0,0.0,74,0.00,CLR,SKC,0.00,WeatherDisplay:10.37,2013-01-23 08:57:00,
2013-01-23 03:02:00,17.0,10.5,30.34,SE,145,0.0,2.0,75,0.00,CLR,SKC,0.00,WeatherDisplay:10.37,2013-01-23 09:02:00,
2013-01-23 03:12:00,17.1,10.2,30.34,SE,124,0.0,2.0,74,0.00,CLR,SKC,0.00,WeatherDisplay:10.37,2013-01-23 09:12:00,
2013-01-23 03:17:00,17.1,10.2,30.34,ESE,123,2.0,5.0,74,0.00,CLR,SKC,0.00,WeatherDisplay:10.37,2013-01-23 09:17:00,
2013-01-23 03:27:00,17.1,10.2,30.33,SE,135,1.0,3.0,74,0.00,CLR,SKC,0.00,WeatherDisplay:10.37,2013-01-23 09:27:00,
2013-01-23 03:32:00,17.0,10.2,30.32,SE,135,0.0,2.0,74,0.00,CLR,SKC,0.00,WeatherDisplay:10.37,2013-01-23 09:32:00,
2013-01-23 03:37:00,16.9,10.1,30.32,SE,143,1.0,2.0,74,0.00,CLR,SKC,0.00,WeatherDisplay:10.37,2013-01-23 09:37:00,
2013-01-23 03:47:00,16.6,10.1,30.33,SSE,150,0.0,0.0,75,0.00,CLR,SKC,0.00,WeatherDisplay:10.37,2013-01-23 09:47:00,
2013-01-23 03:52:00,16.6,10.1,30.33,SSE,150,0.0,0.0,75,0.00,CLR,SKC,0.00,WeatherDisplay:10.37,2013-01-23 09:52:00,
2013-01-23 04:02:00,16.5,10.3,30.33,SSE,150,0.0,0.0,76,0.00,CLR,SKC,0.00,WeatherDisplay:10.37,2013-01-23 10:02:00,
2013-01-23 04:12:00,16.5,10.2,30.33,SSE,150,0.0,0.0,76,0.00,CLR,SKC,0.00,WeatherDisplay:10.37,2013-01-23 10:12:00,
2013-01-23 04:22:00,16.5,10.3,30.33,ESE,119,1.0,2.0,76,0.00,CLR,SKC,0.00,WeatherDisplay:10.37,2013-01-23 10:22:00,
2013-01-23 04:27:00,16.5,10.3,30.33,SE,128,0.0,2.0,76,0.00,CLR,SKC,0.00,WeatherDisplay:10.37,2013-01-23 10:27:00,
2013-01-23 04:32:00,16.5,10.3,30.32,SE,133,0.0,2.0,76,0.00,CLR,SKC,0.00,WeatherDisplay:10.37,2013-01-23 10:32:00,
2013-01-23 04:37:00,16.5,10.3,30.32,SE,139,1.0,3.0,76,0.00,CLR,SKC,0.00,WeatherDisplay:10.37,2013-01-23 10:37:00,
2013-01-23 04:42:00,16.5,10.3,30.32,SE,144,2.0,3.0,76,0.00,CLR,SKC,0.00,WeatherDisplay:10.37,2013-01-23 10:42:00,
2013-01-23 04:47:00,16.5,10.3,30.32,SE,143,2.0,3.0,76,0.00,CLR,SKC,0.00,WeatherDisplay:10.37,2013-01-23 10:47:00,
2013-01-23 04:52:00,16.5,10.2,30.32,SE,140,2.0,3.0,76,0.00,CLR,SKC,0.00,WeatherDisplay:10.37,2013-01-23 10:52:00,
2013-01-23 04:57:00,16.5,10.2,30.32,SE,142,0.0,1.0,76,0.00,CLR,SKC,0.00,WeatherDisplay:10.37,2013-01-23 10:57:00,
2013-01-23 05:02:00,16.4,10.5,30.31,SE,142,1.0,2.0,77,0.00,CLR,SKC,0.00,WeatherDisplay:10.37,2013-01-23 11:02:00,
2013-01-23 05:07:00,16.3,10.4,30.32,SE,140,0.0,0.0,77,0.00,CLR,SKC,0.00,WeatherDisplay:10.37,2013-01-23 11:07:00,
2013-01-23 05:12:00,16.2,10.3,30.32,SE,142,0.0,2.0,77,0.00,CLR,SKC,0.00,WeatherDisplay:10.37,2013-01-23 11:12:00,
2013-01-23 05:17:00,16.2,10.3,30.32,SE,135,1.0,2.0,77,0.00,CLR,SKC,0.00,WeatherDisplay:10.37,2013-01-23 11:17:00,
2013-01-23 05:22:00,16.2,10.3,30.31,SE,132,1.0,2.0,77,0.00,CLR,SKC,0.00,WeatherDisplay:10.37,2013-01-23 11:22:00,
2013-01-23 05:32:00,16.1,10.2,30.32,SE,136,0.0,0.0,77,0.00,CLR,SKC,0.00,WeatherDisplay:10.37,2013-01-23 11:32:00,
2013-01-23 05:37:00,15.9,10.3,30.32,SE,136,0.0,2.0,78,0.00,CLR,SKC,0.00,WeatherDisplay:10.37,2013-01-23 11:37:00,
2013-01-23 05:42:00,15.9,10.3,30.32,SE,133,1.0,3.0,78,0.00,CLR,SKC,0.00,WeatherDisplay:10.37,2013-01-23 11:42:00,
2013-01-23 05:47:00,16.0,10.3,30.32,SE,133,1.0,2.0,78,0.00,CLR,SKC,0.00,WeatherDisplay:10.37,2013-01-23 11:47:00,
2013-01-23 05:52:00,15.9,10.3,30.32,SE,144,2.0,3.0,78,0.00,CLR,SKC,0.00,WeatherDisplay:10.37,2013-01-23 11:52:00,
2013-01-23 05:57:00,15.9,10.3,30.32,SE,136,0.0,2.0,78,0.00,CLR,SKC,0.00,WeatherDisplay:10.37,2013-01-23 11:57:00,
2013-01-23 06:02:00,15.9,10.3,30.32,SE,125,0.0,0.0,78,0.00,CLR,SKC,0.00,WeatherDisplay:10.37,2013-01-23 12:02:00,
2013-01-23 06:12:00,15.7,10.4,30.32,ESE,122,0.0,0.0,79,0.00,CLR,SKC,0.00,WeatherDisplay:10.37,2013-01-23 12:12:00,
2013-01-23 06:17:00,15.5,10.2,30.32,ESE,122,0.0,0.0,79,0.00,CLR,SKC,0.00,WeatherDisplay:10.37,2013-01-23 12:17:00,
2013-01-23 06:22:00,15.4,10.4,30.33,ESE,122,0.0,0.0,80,0.00,CLR,SKC,0.00,WeatherDisplay:10.37,2013-01-23 12:22:00,
2013-01-23 06:27:00,15.5,10.4,30.32,SE,125,1.0,2.0,80,0.00,CLR,SKC,0.00,WeatherDisplay:10.37,2013-01-23 12:27:00,
2013-01-23 06:32:00,15.6,10.2,30.32,SE,131,0.0,2.0,79,0.00,CLR,SKC,0.00,WeatherDisplay:10.37,2013-01-23 12:32:00,
2013-01-23 06:37:00,15.5,10.2,30.32,SE,143,0.0,2.0,79,0.00,CLR,SKC,0.00,WeatherDisplay:10.37,2013-01-23 12:37:00,
2013-01-23 06:42:00,15.4,10.1,30.32,SSE,157,0.0,2.0,79,0.00,CLR,SKC,0.00,WeatherDisplay:10.37,2013-01-23 12:42:00,
2013-01-23 06:47:00,15.3,10.3,30.31,SSE,156,0.0,2.0,80,0.00,CLR,SKC,0.00,WeatherDisplay:10.37,2013-01-23 12:47:00,
2013-01-23 06:57:00,15.6,10.3,30.31,SE,143,1.0,3.0,79,0.00,CLR,SKC,0.00,WeatherDisplay:10.37,2013-01-23 12:57:00,
2013-01-23 07:07:00,15.6,10.3,30.30,SE,139,0.0,0.0,79,0.00,CLR,SKC,0.00,WeatherDisplay:10.37,2013-01-23 13:07:00,
2013-01-23 07:12:00,15.4,10.1,30.31,SE,140,0.0,0.0,79,0.00,CLR,SKC,0.00,WeatherDisplay:10.37,2013-01-23 13:12:00,
2013-01-23 07:17:00,15.3,10.3,30.31,SE,135,0.0,0.0,80,0.00,CLR,SKC,0.00,WeatherDisplay:10.37,2013-01-23 13:17:00,
2013-01-23 07:22:00,15.3,10.2,30.31,SE,131,0.0,0.0,80,0.00,CLR,SKC,0.00,WeatherDisplay:10.37,2013-01-23 13:22:00,
2013-01-23 07:32:00,14.9,9.9,30.31,SE,131,0.0,0.0,80,0.00,CLR,SKC,0.00,WeatherDisplay:10.37,2013-01-23 13:32:00,
2013-01-23 07:37:00,14.8,10.0,30.32,SE,131,0.0,0.0,81,0.00,CLR,SKC,0.00,WeatherDisplay:10.37,2013-01-23 13:37:00,
2013-01-23 07:42:00,15.1,10.3,30.32,SE,131,0.0,0.0,81,0.00,CLR,SKC,0.00,WeatherDisplay:10.37,2013-01-23 13:42:00,
2013-01-23 07:47:00,15.3,10.6,30.32,SE,131,0.0,0.0,81,0.00,CLR,SKC,0.00,WeatherDisplay:10.37,2013-01-23 13:47:00,
2013-01-23 07:52:00,15.8,11.0,30.32,SE,131,0.0,0.0,81,0.00,CLR,SKC,0.00,WeatherDisplay:10.37,2013-01-23 13:52:00,
2013-01-23 07:57:00,16.1,11.3,30.32,SE,131,0.0,0.0,81,0.00,CLR,SKC,0.00,WeatherDisplay:10.37,2013-01-23 13:57:00,
2013-01-23 08:02:00,16.6,11.5,30.32,SE,133,0.0,0.0,80,0.00,CLR,SKC,0.00,WeatherDisplay:10.37,2013-01-23 14:02:00,
2013-01-23 08:07:00,17.1,12.0,30.32,SE,146,1.0,2.0,80,0.00,CLR,SKC,0.00,WeatherDisplay:10.37,2013-01-23 14:07:00,
2013-01-23 08:12:00,17.7,12.3,30.32,SE,142,0.0,2.0,79,0.00,CLR,SKC,0.00,WeatherDisplay:10.37,2013-01-23 14:12:00,
2013-01-23 08:17:00,18.4,12.7,30.31,SE,134,0.0,3.0,78,0.00,CLR,SKC,0.00,WeatherDisplay:10.37,2013-01-23 14:17:00,
2013-01-23 08:22:00,19.1,13.1,30.30,SE,144,0.0,3.0,77,0.00,CLR,SKC,0.00,WeatherDisplay:10.37,2013-01-23 14:22:00,
2013-01-23 08:27:00,20.0,13.4,30.30,SSE,153,2.0,5.0,75,0.00,CLR,SKC,0.00,WeatherDisplay:10.37,2013-01-23 14:27:00,
2013-01-23 08:32:00,21.0,14.0,30.30,SSE,163,1.0,3.0,74,0.00,CLR,SKC,0.00,WeatherDisplay:10.37,2013-01-23 14:32:00,
2013-01-23 08:37:00,21.8,14.2,30.31,SSE,152,3.0,5.0,72,0.00,CLR,SKC,0.00,WeatherDisplay:10.37,2013-01-23 14:37:00,
2013-01-23 08:42:00,22.6,14.6,30.31,SE,145,2.0,5.0,71,0.00,CLR,SKC,0.00,WeatherDisplay:10.37,2013-01-23 14:42:00,
2013-01-23 08:47:00,22.9,14.3,30.31,SE,140,3.0,5.0,69,0.00,CLR,SKC,0.00,WeatherDisplay:10.37,2013-01-23 14:47:00,
2013-01-23 08:52:00,23.4,14.7,30.31,SE,135,2.0,3.0,69,0.00,CLR,SKC,0.00,WeatherDisplay:10.37,2013-01-23 14:52:00,
2013-01-23 08:57:00,24.1,15.4,30.31,SE,132,0.0,2.0,69,0.00,CLR,SKC,0.00,WeatherDisplay:10.37,2013-01-23 14:57:00,
2013-01-23 09:02:00,24.8,15.7,30.31,SSE,166,0.0,3.0,68,0.00,CLR,SKC,0.00,WeatherDisplay:10.37,2013-01-23 15:02:00,
2013-01-23 09:07:00,25.7,16.6,30.31,SSW,197,0.0,0.0,68,0.00,CLR,SKC,0.00,WeatherDisplay:10.37,2013-01-23 15:07:00,
2013-01-23 09:12:00,26.6,17.1,30.31,SSW,202,0.0,3.0,67,0.00,CLR,SKC,0.00,WeatherDisplay:10.37,2013-01-23 15:12:00,
2013-01-23 09:17:00,27.2,17.0,30.30,South,183,2.0,5.0,65,0.00,CLR,SKC,0.00,WeatherDisplay:10.37,2013-01-23 15:17:00,
2013-01-23 09:22:00,27.8,17.5,30.30,SSW,207,0.0,5.0,65,0.00,CLR,SKC,0.00,WeatherDisplay:10.37,2013-01-23 15:22:00,
2013-01-23 09:27:00,28.5,18.2,30.29,SW,214,0.0,3.0,65,0.00,CLR,SKC,0.00,WeatherDisplay:10.37,2013-01-23 15:27:00,
2013-01-23 09:32:00,29.3,18.6,30.30,SW,218,0.0,7.0,64,0.00,CLR,SKC,0.00,WeatherDisplay:10.37,2013-01-23 15:32:00,
2013-01-23 09:37:00,29.7,18.7,30.30,SW,225,3.0,7.0,63,0.00,CLR,SKC,0.00,WeatherDisplay:10.37,2013-01-23 15:37:00,
2013-01-23 09:42:00,30.5,19.4,30.31,SW,217,0.0,5.0,63,0.00,CLR,SKC,0.00,WeatherDisplay:10.37,2013-01-23 15:42:00,
2013-01-23 09:47:00,31.0,19.8,30.31,SSW,205,2.0,7.0,63,0.00,CLR,SKC,0.00,WeatherDisplay:10.37,2013-01-23 15:47:00,
2013-01-23 09:52:00,31.7,20.1,30.31,SW,227,0.0,5.0,62,0.00,CLR,SKC,0.00,WeatherDisplay:10.37,2013-01-23 15:52:00,
2013-01-23 09:57:00,32.5,20.5,30.31,SW,224,3.0,7.0,61,0.00,CLR,SKC,0.00,WeatherDisplay:10.37,2013-01-23 15:57:00,
2013-01-23 10:02:00,33.0,21.0,30.31,SW,228,0.0,5.0,61,0.00,CLR,SKC,0.00,WeatherDisplay:10.37,2013-01-23 16:02:00,
2013-01-23 10:07:00,33.6,21.6,30.30,SW,215,5.0,8.0,61,0.00,CLR,SKC,0.00,WeatherDisplay:10.37,2013-01-23 16:07:00,
2013-01-23 10:12:00,34.2,22.1,30.31,SW,218,0.0,8.0,61,0.00,CLR,SKC,0.00,WeatherDisplay:10.37,2013-01-23 16:12:00,
2013-01-23 10:17:00,34.6,21.7,30.31,WSW,245,2.0,7.0,59,0.00,CLR,SKC,0.00,WeatherDisplay:10.37,2013-01-23 16:17:00,
2013-01-23 10:22:00,35.0,22.1,30.31,SW,236,5.0,7.0,59,0.00,CLR,SKC,0.00,WeatherDisplay:10.37,2013-01-23 16:22:00,
2013-01-23 10:27:00,35.5,22.6,30.32,SW,224,1.0,3.0,59,0.00,CLR,SKC,0.00,WeatherDisplay:10.37,2013-01-23 16:27:00,
2013-01-23 10:32:00,36.1,22.8,30.32,WSW,242,1.0,3.0,58,0.00,CLR,SKC,0.00,WeatherDisplay:10.37,2013-01-23 16:32:00,
2013-01-23 10:37:00,36.6,23.2,30.32,SW,229,0.0,5.0,58,0.00,CLR,SKC,0.00,WeatherDisplay:10.37,2013-01-23 16:37:00,
2013-01-23 10:42:00,37.1,23.7,30.32,SW,227,1.0,3.0,58,0.00,CLR,SKC,0.00,WeatherDisplay:10.37,2013-01-23 16:42:00,
2013-01-23 10:47:00,37.1,22.9,30.32,WSW,258,2.0,3.0,56,0.00,CLR,SKC,0.00,WeatherDisplay:10.37,2013-01-23 16:47:00,
2013-01-23 10:52:00,37.3,23.0,30.32,WSW,257,0.0,2.0,56,0.00,CLR,SKC,0.00,WeatherDisplay:10.37,2013-01-23 16:52:00,
2013-01-23 10:57:00,37.6,23.3,30.32,WSW,246,2.0,5.0,56,0.00,CLR,SKC,0.00,WeatherDisplay:10.37,2013-01-23 16:57:00,
2013-01-23 11:02:00,37.7,23.0,30.32,WSW,249,2.0,5.0,55,0.00,CLR,SKC,0.00,WeatherDisplay:10.37,2013-01-23 17:02:00,
2013-01-23 11:07:00,38.0,23.7,30.32,WSW,257,2.0,3.0,56,0.00,CLR,SKC,0.00,WeatherDisplay:10.37,2013-01-23 17:07:00,
2013-01-23 11:12:00,38.6,23.8,30.32,WSW,242,2.0,7.0,55,0.00,CLR,SKC,0.00,WeatherDisplay:10.37,2013-01-23 17:12:00,
2013-01-23 11:17:00,39.0,24.2,30.32,WSW,251,1.0,5.0,55,0.00,CLR,SKC,0.00,WeatherDisplay:10.37,2013-01-23 17:17:00,
2013-01-23 11:22:00,39.3,24.1,30.32,West,265,3.0,7.0,54,0.00,CLR,SKC,0.00,WeatherDisplay:10.37,2013-01-23 17:22:00,
2013-01-23 11:32:00,40.0,24.2,30.31,WSW,243,1.0,5.0,53,0.00,CLR,SKC,0.00,WeatherDisplay:10.37,2013-01-23 17:32:00,
2013-01-23 11:37:00,40.3,24.5,30.31,WSW,252,1.0,7.0,53,0.00,CLR,SKC,0.00,WeatherDisplay:10.37,2013-01-23 17:37:00,
2013-01-23 11:42:00,40.8,24.5,30.31,WSW,253,5.0,7.0,52,0.00,CLR,SKC,0.00,WeatherDisplay:10.37,2013-01-23 17:42:00,
2013-01-23 11:47:00,41.0,24.7,30.31,WSW,255,1.0,5.0,52,0.00,CLR,SKC,0.00,WeatherDisplay:10.37,2013-01-23 17:47:00,
2013-01-23 11:52:00,41.3,25.0,30.30,West,267,1.0,5.0,52,0.00,CLR,SKC,0.00,WeatherDisplay:10.37,2013-01-23 17:52:00,
2013-01-23 12:02:00,42.3,25.4,30.29,West,277,0.0,3.0,51,0.00,CLR,SKC,0.00,WeatherDisplay:10.37,2013-01-23 18:02:00,
2013-01-23 12:12:00,42.4,24.6,30.28,NW,317,3.0,7.0,49,0.00,CLR,SKC,0.00,WeatherDisplay:10.37,2013-01-23 18:12:00,
2013-01-23 12:22:00,43.0,25.1,30.27,WNW,301,0.0,3.0,49,0.00,CLR,SKC,0.00,WeatherDisplay:10.37,2013-01-23 18:22:00,
2013-01-23 12:27:00,43.0,25.1,30.27,West,273,2.0,5.0,49,0.00,CLR,SKC,0.00,WeatherDisplay:10.37,2013-01-23 18:27:00,
2013-01-23 12:32:00,43.2,25.3,30.27,NW,305,5.0,8.0,49,0.00,CLR,SKC,0.00,WeatherDisplay:10.37,2013-01-23 18:32:00,
2013-01-23 12:37:00,43.2,24.8,30.27,NW,325,2.0,7.0,48,0.00,CLR,SKC,0.00,WeatherDisplay:10.37,2013-01-23 18:37:00,
2013-01-23 12:47:00,44.7,25.6,30.27,West,264,3.0,5.0,47,0.00,CLR,SKC,0.00,WeatherDisplay:10.37,2013-01-23 18:47:00,
2013-01-23 12:52:00,44.6,25.1,30.27,West,281,1.0,3.0,46,0.00,CLR,SKC,0.00,WeatherDisplay:10.37,2013-01-23 18:52:00,
2013-01-23 12:57:00,44.9,25.9,30.26,WNW,303,1.0,3.0,47,0.00,CLR,SKC,0.00,WeatherDisplay:10.37,2013-01-23 18:57:00,
2013-01-23 13:02:00,45.5,25.9,30.26,NW,319,2.0,5.0,46,0.00,CLR,SKC,0.00,WeatherDisplay:10.37,2013-01-23 19:02:00,
2013-01-23 13:07:00,45.8,25.6,30.26,NW,311,2.0,5.0,45,0.00,CLR,SKC,0.00,WeatherDisplay:10.37,2013-01-23 19:07:00,
2013-01-23 13:12:00,46.2,26.0,30.26,NW,320,3.0,7.0,45,0.00,CLR,SKC,0.00,WeatherDisplay:10.37,2013-01-23 19:12:00,
2013-01-23 13:17:00,46.3,25.5,30.26,NW,315,3.0,7.0,44,0.00,CLR,SKC,0.00,WeatherDisplay:10.37,2013-01-23 19:17:00,
2013-01-23 13:22:00,46.1,25.4,30.26,NW,322,1.0,8.0,44,0.00,CLR,SKC,0.00,WeatherDisplay:10.37,2013-01-23 19:22:00,
2013-01-23 13:27:00,46.5,25.8,30.26,NW,307,2.0,7.0,44,0.00,CLR,SKC,0.00,WeatherDisplay:10.37,2013-01-23 19:27:00,
2013-01-23 13:32:00,46.8,26.0,30.26,NW,311,1.0,8.0,44,0.00,CLR,SKC,0.00,WeatherDisplay:10.37,2013-01-23 19:32:00,
2013-01-23 13:37:00,46.6,25.3,30.26,NNW,332,6.0,13.0,43,0.00,CLR,SKC,0.00,WeatherDisplay:10.37,2013-01-23 19:37:00,
2013-01-23 13:42:00,46.0,25.3,30.26,NNW,332,3.0,10.0,44,0.00,CLR,SKC,0.00,WeatherDisplay:10.37,2013-01-23 19:42:00,
2013-01-23 13:47:00,46.2,25.4,30.26,NNW,336,3.0,12.0,44,0.00,CLR,SKC,0.00,WeatherDisplay:10.37,2013-01-23 19:47:00,
2013-01-23 13:52:00,45.9,24.7,30.26,North,354,14.0,18.0,43,0.00,CLR,SKC,0.00,WeatherDisplay:10.37,2013-01-23 19:52:00,
2013-01-23 14:02:00,45.7,24.5,30.25,NNW,348,6.0,15.0,43,0.00,CLR,SKC,0.00,WeatherDisplay:10.37,2013-01-23 20:02:00,
2013-01-23 14:07:00,45.7,25.0,30.25,NW,322,2.0,7.0,44,0.00,CLR,SKC,0.00,WeatherDisplay:10.37,2013-01-23 20:07:00,
2013-01-23 14:12:00,45.7,25.0,30.26,North,0,1.0,7.0,44,0.00,CLR,SKC,0.00,WeatherDisplay:10.37,2013-01-23 20:12:00,
2013-01-23 14:22:00,46.2,24.9,30.25,North,360,2.0,15.0,43,0.00,CLR,SKC,0.00,WeatherDisplay:10.37,2013-01-23 20:22:00,
2013-01-23 14:27:00,46.4,25.1,30.26,North,1,13.0,18.0,43,0.00,CLR,SKC,0.00,WeatherDisplay:10.37,2013-01-23 20:27:00,
2013-01-23 14:32:00,46.4,25.1,30.26,North,4,2.0,15.0,43,0.00,CLR,SKC,0.00,WeatherDisplay:10.37,2013-01-23 20:32:00,
2013-01-23 14:42:00,46.3,25.0,30.26,North,6,7.0,12.0,43,0.00,CLR,SKC,0.00,WeatherDisplay:10.37,2013-01-23 20:42:00,
2013-01-23 14:52:00,46.8,25.5,30.25,North,3,2.0,10.0,43,0.00,CLR,SKC,0.00,WeatherDisplay:10.37,2013-01-23 20:52:00,
2013-01-23 14:57:00,46.9,25.0,30.25,North,356,5.0,10.0,42,0.00,CLR,SKC,0.00,WeatherDisplay:10.37,2013-01-23 20:57:00,
2013-01-23 15:02:00,46.9,25.0,30.24,North,11,6.0,7.0,42,0.00,CLR,SKC,0.00,WeatherDisplay:10.37,2013-01-23 21:02:00,
2013-01-23 15:07:00,46.9,25.0,30.25,NNE,16,7.0,16.0,42,0.00,CLR,SKC,0.00,WeatherDisplay:10.37,2013-01-23 21:07:00,
2013-01-23 15:12:00,46.8,24.9,30.25,North,5,6.0,16.0,42,0.00,CLR,SKC,0.00,WeatherDisplay:10.37,2013-01-23 21:12:00,
2013-01-23 15:17:00,46.8,25.5,30.25,North,2,1.0,13.0,43,0.00,CLR,SKC,0.00,WeatherDisplay:10.37,2013-01-23 21:17:00,
2013-01-23 15:22:00,47.0,25.1,30.25,North,8,6.0,10.0,42,0.00,CLR,SKC,0.00,WeatherDisplay:10.37,2013-01-23 21:22:00,
2013-01-23 15:27:00,46.8,24.9,30.25,North,6,9.0,13.0,42,0.00,CLR,SKC,0.00,WeatherDisplay:10.37,2013-01-23 21:27:00,
2013-01-23 15:32:00,46.5,25.2,30.25,NNE,16,8.0,15.0,43,0.00,CLR,SKC,0.00,WeatherDisplay:10.37,2013-01-23 21:32:00,
2013-01-23 15:37:00,46.4,25.1,30.25,North,6,5.0,15.0,43,0.00,CLR,SKC,0.00,WeatherDisplay:10.37,2013-01-23 21:37:00,
2013-01-23 15:42:00,46.7,25.3,30.25,North,356,6.0,13.0,43,0.00,CLR,SKC,0.00,WeatherDisplay:10.37,2013-01-23 21:42:00,
2013-01-23 15:47:00,46.6,25.3,30.25,North,2,6.0,16.0,43,0.00,CLR,SKC,0.00,WeatherDisplay:10.37,2013-01-23 21:47:00,
2013-01-23 15:52:00,46.7,25.4,30.26,North,9,10.0,18.0,43,0.00,CLR,SKC,0.00,WeatherDisplay:10.37,2013-01-23 21:52:00,
2013-01-23 16:02:00,46.7,25.4,30.27,North,356,7.0,16.0,43,0.00,CLR,SKC,0.00,WeatherDisplay:10.37,2013-01-23 22:02:00,
2013-01-23 16:07:00,46.7,25.4,30.27,North,2,10.0,15.0,43,0.00,CLR,SKC,0.00,WeatherDisplay:10.37,2013-01-23 22:07:00,
2013-01-23 16:12:00,46.6,25.3,30.26,North,354,8.0,14.0,43,0.00,CLR,SKC,0.00,WeatherDisplay:10.37,2013-01-23 22:12:00,
2013-01-23 16:22:00,46.2,24.9,30.26,NNE,26,9.0,22.0,43,0.00,CLR,SKC,0.00,WeatherDisplay:10.37,2013-01-23 22:22:00,
2013-01-23 16:27:00,45.9,24.7,30.26,NNE,13,10.0,15.0,43,0.00,CLR,SKC,0.00,WeatherDisplay:10.37,2013-01-23 22:27:00,
2013-01-23 16:32:00,45.7,25.0,30.26,NNE,21,10.0,13.0,44,0.00,CLR,SKC,0.00,WeatherDisplay:10.37,2013-01-23 22:32:00,
2013-01-23 16:37:00,45.5,24.8,30.26,NNE,19,12.0,16.0,44,0.00,CLR,SKC,0.00,WeatherDisplay:10.37,2013-01-23 22:37:00,
2013-01-23 16:42:00,45.2,24.6,30.27,North,10,16.0,21.0,44,0.00,CLR,SKC,0.00,WeatherDisplay:10.37,2013-01-23 22:42:00,
2013-01-23 16:47:00,44.9,24.8,30.27,NNE,13,9.0,16.0,45,0.00,CLR,SKC,0.00,WeatherDisplay:10.37,2013-01-23 22:47:00,
2013-01-23 16:52:00,44.6,24.6,30.27,NNE,18,9.0,13.0,45,0.00,CLR,SKC,0.00,WeatherDisplay:10.37,2013-01-23 22:52:00,
2013-01-23 16:57:00,44.3,24.3,30.27,NNE,12,7.0,15.0,45,0.00,CLR,SKC,0.00,WeatherDisplay:10.37,2013-01-23 22:57:00,
2013-01-23 17:02:00,44.1,24.6,30.28,North,5,10.0,15.0,46,0.00,CLR,SKC,0.00,WeatherDisplay:10.37,2013-01-23 23:02:00,
2013-01-23 17:07:00,43.9,24.5,30.28,North,9,9.0,14.0,46,0.00,CLR,SKC,0.00,WeatherDisplay:10.37,2013-01-23 23:07:00,
2013-01-23 17:12:00,43.6,24.2,30.28,North,8,5.0,16.0,46,0.00,CLR,SKC,0.00,WeatherDisplay:10.37,2013-01-23 23:12:00,
2013-01-23 17:17:00,43.3,24.4,30.28,North,3,8.0,12.0,47,0.00,CLR,SKC,0.00,WeatherDisplay:10.37,2013-01-23 23:17:00,
2013-01-23 17:22:00,43.1,24.2,30.28,North,3,2.0,10.0,47,0.00,CLR,SKC,0.00,WeatherDisplay:10.37,2013-01-23 23:22:00,
2013-01-23 17:32:00,42.4,24.1,30.29,North,8,0.0,3.0,48,0.00,CLR,SKC,0.00,WeatherDisplay:10.37,2013-01-23 23:32:00,
2013-01-23 17:37:00,41.9,24.2,30.30,North,354,1.0,5.0,49,0.00,CLR,SKC,0.00,WeatherDisplay:10.37,2013-01-23 23:37:00,
2013-01-23 17:42:00,41.6,24.3,30.30,NNW,340,0.0,5.0,50,0.00,CLR,SKC,0.00,WeatherDisplay:10.37,2013-01-23 23:42:00,
2013-01-23 17:47:00,41.3,24.0,30.31,North,352,5.0,7.0,50,0.00,CLR,SKC,0.00,WeatherDisplay:10.37,2013-01-23 23:47:00,
2013-01-23 17:52:00,40.9,24.2,30.32,North,8,2.0,5.0,51,0.00,CLR,SKC,0.00,WeatherDisplay:10.37,2013-01-23 23:52:00,
2013-01-23 17:57:00,40.8,24.0,30.32,North,359,6.0,10.0,51,0.00,CLR,SKC,0.00,WeatherDisplay:10.37,2013-01-23 23:57:00,
2013-01-23 18:02:00,40.6,23.9,30.32,North,352,3.0,13.0,51,0.00,CLR,SKC,0.00,WeatherDisplay:10.37,2013-01-24 00:02:00,
2013-01-23 18:07:00,40.4,23.7,30.32,North,354,1.0,7.0,51,0.00,CLR,SKC,0.00,WeatherDisplay:10.37,2013-01-24 00:07:00,
2013-01-23 18:12:00,40.0,23.8,30.33,North,0,8.0,18.0,52,0.00,CLR,SKC,0.00,WeatherDisplay:10.37,2013-01-24 00:12:00,
2013-01-23 18:17:00,39.9,23.7,30.32,North,1,8.0,17.0,52,0.00,CLR,SKC,0.00,WeatherDisplay:10.37,2013-01-24 00:17:00,
2013-01-23 18:22:00,39.7,23.5,30.33,North,2,6.0,13.0,52,0.00,CLR,SKC,0.00,WeatherDisplay:10.37,2013-01-24 00:22:00,
2013-01-23 18:27:00,39.5,23.3,30.34,North,351,5.0,12.0,52,0.00,CLR,SKC,0.00,WeatherDisplay:10.37,2013-01-24 00:27:00,
2013-01-23 18:32:00,39.2,23.0,30.33,North,355,9.0,12.0,52,0.00,CLR,SKC,0.00,WeatherDisplay:10.37,2013-01-24 00:32:00,
2013-01-23 18:37:00,39.0,22.9,30.34,North,7,13.0,16.0,52,0.00,CLR,SKC,0.00,WeatherDisplay:10.37,2013-01-24 00:37:00,
2013-01-23 18:42:00,39.0,22.9,30.34,North,2,12.0,13.0,52,0.00,CLR,SKC,0.00,WeatherDisplay:10.37,2013-01-24 00:42:00,
2013-01-23 18:47:00,38.8,22.7,30.34,North,8,9.0,13.0,52,0.00,CLR,SKC,0.00,WeatherDisplay:10.37,2013-01-24 00:47:00,
2013-01-23 18:52:00,38.8,22.7,30.34,NNE,17,9.0,13.0,52,0.00,CLR,SKC,0.00,WeatherDisplay:10.37,2013-01-24 00:52:00,
2013-01-23 18:57:00,38.7,22.6,30.35,North,7,9.0,13.0,52,0.00,CLR,SKC,0.00,WeatherDisplay:10.37,2013-01-24 00:57:00,
2013-01-23 19:02:00,38.6,22.5,30.35,North,1,17.0,24.0,52,0.00,CLR,SKC,0.00,WeatherDisplay:10.37,2013-01-24 01:02:00,
2013-01-23 19:07:00,38.4,22.8,30.35,North,10,15.0,18.0,53,0.00,CLR,SKC,0.00,WeatherDisplay:10.37,2013-01-24 01:07:00,
2013-01-23 19:12:00,37.8,22.7,30.35,NNE,14,9.0,15.0,54,0.00,CLR,SKC,0.00,WeatherDisplay:10.37,2013-01-24 01:12:00,
2013-01-23 19:17:00,37.2,22.5,30.35,North,5,7.0,15.0,55,0.00,CLR,SKC,0.00,WeatherDisplay:10.37,2013-01-24 01:17:00,
2013-01-23 19:22:00,36.9,22.6,30.35,North,1,9.0,15.0,56,0.00,CLR,SKC,0.00,WeatherDisplay:10.37,2013-01-24 01:22:00,
2013-01-23 19:27:00,36.7,22.5,30.35,North,0,10.0,21.0,56,0.00,CLR,SKC,0.00,WeatherDisplay:10.37,2013-01-24 01:27:00,
2013-01-23 19:32:00,36.5,22.3,30.36,North,4,14.0,22.0,56,0.00,CLR,SKC,0.00,WeatherDisplay:10.37,2013-01-24 01:32:00,
2013-01-23 19:42:00,36.2,22.0,30.37,NNE,16,12.0,21.0,56,0.00,CLR,SKC,0.00,WeatherDisplay:10.37,2013-01-24 01:42:00,
2013-01-23 19:47:00,36.0,21.8,30.37,NNE,19,7.0,18.0,56,0.00,CLR,SKC,0.00,WeatherDisplay:10.37,2013-01-24 01:47:00,
2013-01-23 19:52:00,35.8,22.0,30.37,NNE,13,15.0,20.0,57,0.00,CLR,SKC,0.00,WeatherDisplay:10.37,2013-01-24 01:52:00,
2013-01-23 19:57:00,35.6,21.8,30.37,North,9,9.0,16.0,57,0.00,CLR,SKC,0.00,WeatherDisplay:10.37,2013-01-24 01:57:00,
2013-01-23 20:02:00,35.2,21.9,30.38,North,7,9.0,20.0,58,0.00,CLR,SKC,0.00,WeatherDisplay:10.37,2013-01-24 02:02:00,
2013-01-23 20:07:00,34.9,22.0,30.38,North,5,10.0,18.0,59,0.00,CLR,SKC,0.00,WeatherDisplay:10.37,2013-01-24 02:07:00,
2013-01-23 20:12:00,34.6,21.7,30.38,North,359,10.0,15.0,59,0.00,CLR,SKC,0.00,WeatherDisplay:10.37,2013-01-24 02:12:00,
2013-01-23 20:22:00,34.2,21.4,30.38,North,3,9.0,18.0,59,0.00,CLR,SKC,0.00,WeatherDisplay:10.37,2013-01-24 02:22:00,
2013-01-23 20:27:00,34.0,21.1,30.39,North,5,13.0,24.0,59,0.00,CLR,SKC,0.00,WeatherDisplay:10.37,2013-01-24 02:27:00,
2013-01-23 20:32:00,33.8,20.5,30.40,North,6,12.0,22.0,58,0.00,CLR,SKC,0.00,WeatherDisplay:10.37,2013-01-24 02:32:00,
2013-01-23 20:37:00,33.5,20.3,30.40,North,11,15.0,22.0,58,0.00,CLR,SKC,0.00,WeatherDisplay:10.37,2013-01-24 02:37:00,
2013-01-23 20:42:00,33.3,20.1,30.41,North,358,15.0,22.0,58,0.00,CLR,SKC,0.00,WeatherDisplay:10.37,2013-01-24 02:42:00,
2013-01-23 20:52:00,33.0,19.4,30.41,North,11,20.0,29.0,57,0.00,CLR,SKC,0.00,WeatherDisplay:10.37,2013-01-24 02:52:00,
2013-01-23 20:57:00,32.8,19.6,30.41,North,8,10.0,20.0,58,0.00,CLR,SKC,0.00,WeatherDisplay:10.37,2013-01-24 02:57:00,
2013-01-23 21:02:00,32.5,19.4,30.41,North,1,20.0,24.0,58,0.00,CLR,SKC,0.00,WeatherDisplay:10.37,2013-01-24 03:02:00,
2013-01-23 21:07:00,32.2,19.1,30.41,NNE,23,22.0,24.0,58,0.00,CLR,SKC,0.00,WeatherDisplay:10.37,2013-01-24 03:07:00,
2013-01-23 21:12:00,32.0,18.9,30.42,NNE,25,17.0,28.0,58,0.00,CLR,SKC,0.00,WeatherDisplay:10.37,2013-01-24 03:12:00,
2013-01-23 21:22:00,31.6,18.1,30.41,NNE,26,17.0,20.0,57,0.00,CLR,SKC,0.00,WeatherDisplay:10.37,2013-01-24 03:22:00,
2013-01-23 21:27:00,31.4,18.3,30.41,NNE,33,10.0,22.0,58,0.00,CLR,SKC,0.00,WeatherDisplay:10.37,2013-01-24 03:27:00,
2013-01-23 21:32:00,31.2,18.2,30.42,NNE,33,16.0,18.0,58,0.00,CLR,SKC,0.00,WeatherDisplay:10.37,2013-01-24 03:32:00,
2013-01-23 21:37:00,31.1,18.0,30.43,NNE,31,20.0,24.0,58,0.00,CLR,SKC,0.00,WeatherDisplay:10.37,2013-01-24 03:37:00,
2013-01-23 21:42:00,31.0,18.0,30.43,NNE,27,9.0,22.0,58,0.00,CLR,SKC,0.00,WeatherDisplay:10.37,2013-01-24 03:42:00,
2013-01-23 21:52:00,30.7,18.1,30.43,NNE,28,15.0,21.0,59,0.00,CLR,SKC,0.00,WeatherDisplay:10.37,2013-01-24 03:52:00,
2013-01-23 21:57:00,30.5,17.9,30.43,NNE,21,18.0,21.0,59,0.00,CLR,SKC,0.00,WeatherDisplay:10.37,2013-01-24 03:57:00,
2013-01-23 22:02:00,30.4,17.7,30.43,NNE,17,16.0,24.0,59,0.00,CLR,SKC,0.00,WeatherDisplay:10.37,2013-01-24 04:02:00,
2013-01-23 22:07:00,30.2,17.6,30.44,NNE,12,17.0,20.0,59,0.00,CLR,SKC,0.00,WeatherDisplay:10.37,2013-01-24 04:07:00,
2013-01-23 22:12:00,30.0,17.4,30.44,North,7,14.0,21.0,59,0.00,CLR,SKC,0.00,WeatherDisplay:10.37,2013-01-24 04:12:00,
2013-01-23 22:22:00,29.8,17.6,30.45,NNE,15,23.0,26.0,60,0.00,CLR,SKC,0.00,WeatherDisplay:10.37,2013-01-24 04:22:00,
2013-01-23 22:27:00,29.7,17.5,30.44,North,7,15.0,22.0,60,0.00,CLR,SKC,0.00,WeatherDisplay:10.37,2013-01-24 04:27:00,
2013-01-23 22:32:00,29.4,17.6,30.44,NNE,13,18.0,22.0,61,0.00,CLR,SKC,0.00,WeatherDisplay:10.37,2013-01-24 04:32:00,
2013-01-23 22:37:00,29.3,17.5,30.45,NNE,27,15.0,18.0,61,0.00,CLR,SKC,0.00,WeatherDisplay:10.37,2013-01-24 04:37:00,
2013-01-23 22:42:00,29.1,17.3,30.45,NNE,26,12.0,13.0,61,0.00,CLR,SKC,0.00,WeatherDisplay:10.37,2013-01-24 04:42:00,
2013-01-23 22:47:00,29.0,17.6,30.45,North,7,12.0,16.0,62,0.00,CLR,SKC,0.00,WeatherDisplay:10.37,2013-01-24 04:47:00,
2013-01-23 22:52:00,28.8,17.4,30.44,NNE,18,15.0,18.0,62,0.00,CLR,SKC,0.00,WeatherDisplay:10.37,2013-01-24 04:52:00,
2013-01-23 22:57:00,28.6,16.9,30.44,NNE,25,17.0,24.0,61,0.00,CLR,SKC,0.00,WeatherDisplay:10.37,2013-01-24 04:57:00,
2013-01-23 23:07:00,28.2,15.7,30.45,NNE,16,15.0,21.0,59,0.00,CLR,SKC,0.00,WeatherDisplay:10.37,2013-01-24 05:07:00,
2013-01-23 23:12:00,28.0,15.5,30.45,North,10,10.0,18.0,59,0.00,CLR,SKC,0.00,WeatherDisplay:10.37,2013-01-24 05:12:00,
2013-01-23 23:17:00,27.8,15.7,30.45,NNE,14,13.0,20.0,60,0.00,CLR,SKC,0.00,WeatherDisplay:10.37,2013-01-24 05:17:00,
2013-01-23 23:22:00,27.7,16.0,30.47,NNE,17,16.0,22.0,61,0.00,CLR,SKC,0.00,WeatherDisplay:10.37,2013-01-24 05:22:00,
2013-01-23 23:27:00,27.5,15.8,30.47,North,9,13.0,22.0,61,0.00,CLR,SKC,0.00,WeatherDisplay:10.37,2013-01-24 05:27:00,
2013-01-23 23:32:00,27.4,16.1,30.47,North,6,18.0,21.0,62,0.00,CLR,SKC,0.00,WeatherDisplay:10.37,2013-01-24 05:32:00,
2013-01-23 23:37:00,27.2,15.9,30.48,NNE,15,18.0,22.0,62,0.00,CLR,SKC,0.00,WeatherDisplay:10.37,2013-01-24 05:37:00,
2013-01-23 23:42:00,27.1,16.1,30.47,NNE,20,9.0,22.0,63,0.00,CLR,SKC,0.00,WeatherDisplay:10.37,2013-01-24 05:42:00,
2013-01-23 23:47:00,26.9,16.0,30.48,NNE,13,14.0,21.0,63,0.00,CLR,SKC,0.00,WeatherDisplay:10.37,2013-01-24 05:47:00,
2013-01-23 23:52:00,26.8,15.8,30.48,North,11,9.0,16.0,63,0.00,CLR,SKC,0.00,WeatherDisplay:10.37,2013-01-24 05:52:00,
2013-01-23 23:57:00,26.6,16.1,30.48,NNE,27,13.0,22.0,64,0.00,CLR,SKC,0.00,WeatherDisplay:10.37,2013-01-24 05:57:00,